This is the latest recevied weather packets stored in our database for station/object SV1JSO-13. If no packets are shown the sender has not sent any weather packets the latest 10 day(s).
| Time | Temp. | Humidity | Pressure | Rain* | Wind** | Luminosity | Snow |
|---|---|---|---|---|---|---|---|
| 1788259500 | 30.56° C | 43% | 1008.3 hPa | 0 mm | - | 747 W/m² | - |
| 1788259200 | 30.56° C | 47% | 1008.3 hPa | 0 mm | - | 751 W/m² | - |
| 1788258900 | 31.11° C | 49% | 1008.4 hPa | 0 mm | - | 747 W/m² | - |
| 1788258600 | 30.56° C | 47% | 1008.3 hPa | 0 mm | - | 748 W/m² | - |
| 1788258300 | 31.11° C | 44% | 1008.4 hPa | 0 mm | - | 748 W/m² | - |
| 1788258001 | 30.56° C | 46% | 1008.5 hPa | 0 mm | - | 749 W/m² | - |
| 1788257700 | 31.11° C | 46% | 1008.6 hPa | 0 mm | - | 749 W/m² | - |
| 1788257400 | 31.11° C | 47% | 1008.5 hPa | 0 mm | - | 746 W/m² | - |
| 1788257100 | 30.56° C | 48% | 1008.5 hPa | 0 mm | - | 742 W/m² | - |
| 1788256801 | 30.56° C | 49% | 1008.5 hPa | 0 mm | - | 735 W/m² | - |
| 1788256501 | 31.11° C | 46% | 1008.5 hPa | 0 mm | - | 735 W/m² | - |
| 1788256201 | 31.11° C | 47% | 1008.5 hPa | 0 mm | - | 730 W/m² | - |
| 1788255900 | 31.67° C | 39% | 1008.5 hPa | 0 mm | - | 734 W/m² | - |
| 1788255600 | 32.22° C | 45% | 1008.6 hPa | 0 mm | - | 728 W/m² | - |
| 1788255300 | 32.22° C | 29% | 1008.6 hPa | 0 mm | - | 724 W/m² | - |
| 1788255000 | 30.56° C | 48% | 1008.6 hPa | 0 mm | - | 724 W/m² | - |
| 1788254700 | 31.11° C | 44% | 1008.7 hPa | 0 mm | - | 715 W/m² | - |
| 1788254408 | 32.22° C | 41% | 1008.7 hPa | 0 mm | - | 710 W/m² | - |
| 1788254100 | 32.78° C | 32% | 1008.9 hPa | 0 mm | - | 702 W/m² | - |
| 1788253800 | 33.33° C | 28% | 1008.7 hPa | 0 mm | - | 695 W/m² | - |
| 1788253500 | 32.78° C | 28% | 1008.8 hPa | 0 mm | - | 691 W/m² | - |
| 1788253200 | 33.33° C | 27% | 1008.8 hPa | 0 mm | - | 682 W/m² | - |
| 1788252900 | 32.78° C | 28% | 1008.7 hPa | 0 mm | - | 676 W/m² | - |
| 1788252600 | 32.22° C | 28% | 1008.5 hPa | 0 mm | - | 667 W/m² | - |
| 1788252300 | 32.22° C | 28% | 1008.7 hPa | 0 mm | - | 658 W/m² | - |
* Rain latest hour (hover to see other rain measurements)
** Current wind speed in m/s (hover to see current wind gust speed)